Regional Weather Roundup
Issued by NWS

Home | Current Version | Previous Version | Graphics & Text | Print | Product List | Glossary On
Versions: 1 2 3 4 5 6 7 8 9 10 11 12 13 14 15 16 17 18 19 20 21 22 23 24 25 26 27 28 29 30 31 32 33 34 35 36 37 38 39 40 41 42 43 44 45 46 47 48 49 50
000
ASUS43 KLMK 280402
RWRKY
KENTUCKY REGIONAL WEATHER ROUNDUP
NATIONAL WEATHER SERVICE LOUISVILLE KY
1200 AM EDT THU JUL 28 2016

NOTE "FAIR" INDICATES FEW OR NO CLOUDS BELOW 12,000 FEET
WITH NO SIGNIFICANT WEATHER AND/OR OBSTRUCTIONS TO VISIBILITY.

KYZ001>023-026-027-061>063-070>075-280500-
WESTERN AND SOUTH CENTRAL KENTUCKY

CITY           SKY/WX    TMP DP  RH WIND       PRES   REMARKS
PADUCAH        HVY RAIN  73  70  90 E6        29.95F FOG
HENDERSON      NOT AVBL
OWENSBORO      TSTM      75  75 100 S5        29.96R
HOPKINSVILLE   TSTM      73  72  94 W10       29.97R
BOWLING GREEN  TSTM      75  73  93 NW8       29.94F FOG
GLASGOW        NOT AVBL
$$

KYZ024-025-028>034-038-045-046-053-280500-
NORTH CENTRAL KENTUCKY

CITY           SKY/WX    TMP DP  RH WIND       PRES   REMARKS
LOUISVILLE/SDF TSTM      80  73  79 VRB3      29.94R
LOUISVILLE/LOU LGT RAIN  77  74  90 CALM      29.94S
FORT KNOX      CLOUDY    76  74  95 NW3       29.93F
$$

KYZ035>037-039>044-047>052-055>060-089>105-280500-
NORTHEAST KENTUCKY

CITY           SKY/WX    TMP DP  RH WIND       PRES   REMARKS
LEXINGTON      MOCLDY    78  73  84 CALM      29.97S
COVINGTON      CLOUDY    77  74  90 CALM      29.97R
FRANKFORT      CLOUDY    79  74  84 CALM      29.95R
$$

KYZ054-064>069-076>088-106>120-280500-
SOUTHEAST KENTUCKY

CITY           SKY/WX    TMP DP  RH WIND       PRES   REMARKS
JACKSON        RAIN      71  70  96 CALM      30.02F FOG
LONDON         RAIN      73  68  84 VRB3      30.02S
SOMERSET       MOCLDY    73  72  94 S6        30.02R THUNDER
MIDDLESBORO    TSTM      71  70  98 CALM      30.08R
MONTICELLO     CLOUDY   N/A N/A N/A E8        30.02S HAZE
$$





USA.gov is the U.S. government's official web portal to all federal, state and local government web resources and services.